SCOUT B DEB, 28265

Orbit data source: Space-Track

SCOUT B DEB, 28265 is space debris in LEO originally from a launch on Fri, 10 Jun 1966 UTC launched from the Wallops Island (WLPIS). Debris objects in space refer to the collection of defunct objects orbiting the Earth. Examples of debris include non-operational satellites, rocket bodies, and fragments generated from explosions, collisions, or faulty payload assembly.

Loading next visibility...
Identifier
28265, 1966-052E
Orbit
LEO
Country
Flag of USUS
Related business
Manufacturer
Unknown
Mission
Spacecraft
Bus & Motor
Unknown
Mass
Unknown
Launch date (UTC)
1966-06-10 (60 years ago)
Launch vehicle
Unknown
Launch site
Wallops Island (WLPIS)
Object type
Payload
Rocket body
Debris
Shape & HBR
Unknown shape, 0.1 m
Radar Cross Section
Small (<0.1 m²)

Expand to show TLE details & history
Last TLE update: 1 day ago

TLE from 1 day ago
0 SCOUT B DEB
1 28265U 66052E   26128.82349504  .00001754  00000-0  18358-2 0  9990
2 28265  40.8579 181.4266 1968960 166.9649 199.0570 10.69474173 68902
Epoch: 2026-05-08T19:45Z
TLE epoch observation values (Epoch: 2026-05-08T19:45:49.971Z)
Latitude
0.00001°
Longitude
18.31865°
Altitude
3,970.788 km
Speed
5.59 km/s
True Right ascension
12h 05m 42s
True Declination
0° 00' 00"
Sunlit
Object was in daylight at epoch
Visualization orbit readout
Latitude
Unknown
Longitude
Unknown
Altitude
Unknown
Speed
Unknown
Apparent Right ascension
Unknown
Apparent Declination
Unknown
Sunlit
N/A
Visualization observer readout
Local Sidereal Time
07:09:11
Azimuth
Unknown
Elevation
Unknown
Doppler factor
Unknown
Orbital elements
Apogee altitude
4,039.622 km
Perigee altitude
612.064 km
Semi-major axis
8,703.98 km
Eccentricity
0.1969
Inclination
40.8579°
RAAN
181.4266°
Arg. of periapsis
166.9649°
True anomaly
193.09782°
Mean anomaly
199.057°
Eccentric anomaly
195.95581°
Mean motion
2.6728 °/min
Orbital period
134.69 mins
BSTAR
0.0018358
Loading maneuver chart data...
Computing Atmospheric mass density...
Loading historical data...
Loading historical data...
Loading historical data...
Loading historical data...
Loading historical data...
Loading historical data...
Loading historical data...
Other satellites on launch #52 in the year 1966 (1966-06-10 UTC)

Documentation

Showing up to 5 results
|